Time,TemperatureF,DewpointF,PressureIn,WindDirection,WindDirectionDegrees,WindSpeedMPH,WindSpeedGustMPH,Humidity,HourlyPrecipIn,Conditions,Clouds,dailyrainin,SoftwareType,DateUTC
2013-11-29 00:00:00,23.2,12.8,30.45,WSW,248,0.0,1.0,64,0.00,,---,0.00,VWS V14.01,2013-11-29 05:00:00,
2013-11-29 00:05:00,23.1,12.8,30.45,WSW,250,0.0,2.0,64,0.00,,---,0.00,VWS V14.01,2013-11-29 05:05:00,
2013-11-29 00:15:00,22.9,12.9,30.45,SW,215,0.0,2.0,65,0.00,,---,0.00,VWS V14.01,2013-11-29 05:15:00,
2013-11-29 00:20:00,22.8,12.8,30.45,SW,215,0.0,1.0,65,0.00,,---,0.00,VWS V14.01,2013-11-29 05:20:00,
2013-11-29 00:25:00,22.7,13.1,30.45,South,171,0.0,1.0,66,0.00,,---,0.00,VWS V14.01,2013-11-29 05:25:00,
2013-11-29 00:30:00,22.5,12.9,30.45,NW,308,0.0,2.0,66,0.00,,---,0.00,VWS V14.01,2013-11-29 05:30:00,
2013-11-29 00:35:00,22.4,12.8,30.46,NW,308,0.0,1.0,66,0.00,,---,0.00,VWS V14.01,2013-11-29 05:35:00,
2013-11-29 00:40:00,22.3,13.0,30.46,NW,308,0.0,1.0,67,0.00,,---,0.00,VWS V14.01,2013-11-29 05:40:00,
2013-11-29 00:45:00,22.4,13.1,30.46,SW,214,0.0,1.0,67,0.00,,---,0.00,VWS V14.01,2013-11-29 05:45:00,
2013-11-29 00:50:00,22.4,13.1,30.46,SW,214,0.0,1.0,67,0.00,,---,0.00,VWS V14.01,2013-11-29 05:50:00,
2013-11-29 00:55:00,22.4,13.4,30.47,SW,214,0.0,2.0,68,0.00,,---,0.00,VWS V14.01,2013-11-29 05:55:00,
2013-11-29 01:00:00,22.4,13.4,30.47,SW,214,0.0,1.0,68,0.00,,---,0.00,VWS V14.01,2013-11-29 06:00:00,
2013-11-29 01:05:00,22.5,13.2,30.47,SSW,197,0.0,3.0,67,0.00,,---,0.00,VWS V14.01,2013-11-29 06:05:00,
2013-11-29 01:15:00,22.7,13.7,30.47,SSW,197,0.0,1.0,68,0.00,,---,0.00,VWS V14.01,2013-11-29 06:15:00,
2013-11-29 01:20:00,22.8,13.5,30.47,West,263,0.0,3.0,67,0.00,,---,0.00,VWS V14.01,2013-11-29 06:20:00,
2013-11-29 01:25:00,22.9,13.6,30.47,West,263,0.0,1.0,67,0.00,,---,0.00,VWS V14.01,2013-11-29 06:25:00,
2013-11-29 01:30:00,23.1,14.1,30.47,West,281,3.0,5.0,68,0.00,,---,0.00,VWS V14.01,2013-11-29 06:30:00,
2013-11-29 01:35:00,23.1,13.8,30.47,West,281,0.0,3.0,67,0.00,,---,0.00,VWS V14.01,2013-11-29 06:35:00,
2013-11-29 01:40:00,23.3,14.0,30.47,SSW,203,0.0,1.0,67,0.00,,---,0.00,VWS V14.01,2013-11-29 06:40:00,
2013-11-29 01:45:00,23.3,14.0,30.47,SSW,208,0.0,1.0,67,0.00,,---,0.00,VWS V14.01,2013-11-29 06:45:00,
2013-11-29 01:50:00,23.4,14.1,30.47,NNW,333,0.0,2.0,67,0.00,,---,0.00,VWS V14.01,2013-11-29 06:50:00,
2013-11-29 01:55:00,23.5,14.2,30.47,NNW,333,1.0,1.0,67,0.00,,---,0.00,VWS V14.01,2013-11-29 06:55:00,
2013-11-29 02:00:00,23.6,14.3,30.47,WNW,294,0.0,4.0,67,0.00,,---,0.00,VWS V14.01,2013-11-29 07:00:00,
2013-11-29 02:05:00,23.7,14.4,30.47,WSW,252,0.0,4.0,67,0.00,,---,0.00,VWS V14.01,2013-11-29 07:05:00,
2013-11-29 02:10:00,23.8,14.5,30.47,NW,308,0.0,2.0,67,0.00,,---,0.00,VWS V14.01,2013-11-29 07:10:00,
2013-11-29 02:15:00,23.8,14.1,30.48,WSW,254,0.0,5.0,66,0.00,,---,0.00,VWS V14.01,2013-11-29 07:15:00,
2013-11-29 02:20:00,23.9,14.6,30.48,North,357,0.0,1.0,67,0.00,,---,0.00,VWS V14.01,2013-11-29 07:20:00,
2013-11-29 02:25:00,24.0,14.6,30.47,NNW,344,0.0,2.0,67,0.00,,---,0.00,VWS V14.01,2013-11-29 07:25:00,
2013-11-29 02:30:00,24.0,14.6,30.47,WSW,241,0.0,3.0,67,0.00,,---,0.00,VWS V14.01,2013-11-29 07:30:00,
2013-11-29 02:35:00,24.0,14.3,30.47,SW,227,0.0,4.0,66,0.00,,---,0.00,VWS V14.01,2013-11-29 07:35:00,
2013-11-29 02:40:00,24.1,14.4,30.47,SW,215,0.0,2.0,66,0.00,,---,0.00,VWS V14.01,2013-11-29 07:40:00,
2013-11-29 02:45:00,24.1,14.4,30.47,SSW,204,0.0,2.0,66,0.00,,---,0.00,VWS V14.01,2013-11-29 07:45:00,
2013-11-29 02:50:00,24.2,14.8,30.47,SSW,204,0.0,0.0,67,0.00,,---,0.00,VWS V14.01,2013-11-29 07:50:00,
2013-11-29 02:55:00,24.2,14.8,30.47,SSW,204,0.0,0.0,67,0.00,,---,0.00,VWS V14.01,2013-11-29 07:55:00,
2013-11-29 03:00:00,24.2,14.8,30.47,SSW,204,0.0,0.0,67,0.00,,---,0.00,VWS V14.01,2013-11-29 08:00:00,
2013-11-29 03:05:00,24.1,15.1,30.48,SSW,204,0.0,0.0,68,0.00,,---,0.00,VWS V14.01,2013-11-29 08:05:00,
2013-11-29 03:10:00,24.1,14.7,30.47,SSE,156,0.0,1.0,67,0.00,,---,0.00,VWS V14.01,2013-11-29 08:10:00,
2013-11-29 03:15:00,24.1,14.7,30.47,SSE,156,0.0,0.0,67,0.00,,---,0.00,VWS V14.01,2013-11-29 08:15:00,
2013-11-29 03:20:00,24.2,14.8,30.47,SSE,156,0.0,1.0,67,0.00,,---,0.00,VWS V14.01,2013-11-29 08:20:00,
2013-11-29 03:25:00,24.2,15.2,30.47,SSE,156,0.0,0.0,68,0.00,,---,0.00,VWS V14.01,2013-11-29 08:25:00,
2013-11-29 03:30:00,24.2,15.5,30.47,SSE,156,0.0,0.0,69,0.00,,---,0.00,VWS V14.01,2013-11-29 08:30:00,
2013-11-29 03:35:00,24.2,15.5,30.48,SSE,156,0.0,0.0,69,0.00,,---,0.00,VWS V14.01,2013-11-29 08:35:00,
2013-11-29 03:40:00,24.1,15.4,30.48,SSE,156,0.0,0.0,69,0.00,,---,0.00,VWS V14.01,2013-11-29 08:40:00,
2013-11-29 03:45:00,24.1,15.1,30.47,SSE,156,0.0,0.0,68,0.00,,---,0.00,VWS V14.01,2013-11-29 08:45:00,
2013-11-29 03:50:00,24.1,15.1,30.47,SSE,156,0.0,1.0,68,0.00,,---,0.00,VWS V14.01,2013-11-29 08:50:00,
2013-11-29 03:55:00,24.1,15.1,30.48,SSE,156,0.0,0.0,68,0.00,,---,0.00,VWS V14.01,2013-11-29 08:55:00,
2013-11-29 04:00:00,24.1,15.4,30.48,SSE,156,0.0,0.0,69,0.00,,---,0.00,VWS V14.01,2013-11-29 09:00:00,
2013-11-29 04:05:00,24.1,15.4,30.48,SSE,156,0.0,2.0,69,0.00,,---,0.00,VWS V14.01,2013-11-29 09:05:00,
2013-11-29 04:15:00,24.1,15.4,30.48,SSE,156,0.0,1.0,69,0.00,,---,0.00,VWS V14.01,2013-11-29 09:15:00,
2013-11-29 04:20:00,24.1,15.4,30.48,SSE,156,0.0,0.0,69,0.00,,---,0.00,VWS V14.01,2013-11-29 09:20:00,
2013-11-29 04:25:00,24.1,15.4,30.48,SSE,156,0.0,0.0,69,0.00,,---,0.00,VWS V14.01,2013-11-29 09:25:00,
2013-11-29 04:30:00,24.1,15.4,30.48,SSE,156,0.0,1.0,69,0.00,,---,0.00,VWS V14.01,2013-11-29 09:30:00,
2013-11-29 04:35:00,24.2,15.8,30.49,SSE,156,0.0,0.0,70,0.00,,---,0.00,VWS V14.01,2013-11-29 09:35:00,
2013-11-29 04:40:00,24.2,15.5,30.49,SSE,156,0.0,0.0,69,0.00,,---,0.00,VWS V14.01,2013-11-29 09:40:00,
2013-11-29 04:45:00,24.2,15.8,30.49,SSE,156,0.0,0.0,70,0.00,,---,0.00,VWS V14.01,2013-11-29 09:45:00,
2013-11-29 04:55:00,24.3,15.9,30.49,SSE,156,0.0,2.0,70,0.00,,---,0.00,VWS V14.01,2013-11-29 09:55:00,
2013-11-29 05:00:00,24.3,15.9,30.49,SSE,157,0.0,1.0,70,0.00,,---,0.00,VWS V14.01,2013-11-29 10:00:00,
2013-11-29 05:05:00,24.3,15.6,30.49,SSE,157,0.0,2.0,69,0.00,,---,0.00,VWS V14.01,2013-11-29 10:05:00,
2013-11-29 05:10:00,24.3,15.9,30.50,SSE,157,0.0,1.0,70,0.00,,---,0.00,VWS V14.01,2013-11-29 10:10:00,
2013-11-29 05:15:00,24.3,15.9,30.50,SSE,157,0.0,1.0,70,0.00,,---,0.00,VWS V14.01,2013-11-29 10:15:00,
2013-11-29 05:20:00,24.3,15.9,30.50,West,264,0.0,2.0,70,0.00,,---,0.00,VWS V14.01,2013-11-29 10:20:00,
2013-11-29 05:25:00,24.4,16.0,30.50,WSW,255,1.0,2.0,70,0.00,,---,0.00,VWS V14.01,2013-11-29 10:25:00,
2013-11-29 05:30:00,24.3,15.9,30.50,WSW,256,0.0,1.0,70,0.00,,---,0.00,VWS V14.01,2013-11-29 10:30:00,
2013-11-29 05:35:00,24.3,16.3,30.50,WSW,250,0.0,1.0,71,0.00,,---,0.00,VWS V14.01,2013-11-29 10:35:00,
2013-11-29 05:40:00,24.3,16.3,30.50,WSW,250,0.0,0.0,71,0.00,,---,0.00,VWS V14.01,2013-11-29 10:40:00,
2013-11-29 05:45:00,24.2,15.8,30.51,WSW,250,0.0,0.0,70,0.00,,---,0.00,VWS V14.01,2013-11-29 10:45:00,
2013-11-29 05:50:00,24.2,16.2,30.51,WSW,250,0.0,0.0,71,0.00,,---,0.00,VWS V14.01,2013-11-29 10:50:00,
2013-11-29 05:55:00,24.1,16.4,30.51,WSW,250,0.0,0.0,72,0.00,,---,0.00,VWS V14.01,2013-11-29 10:55:00,
2013-11-29 06:00:00,23.8,16.1,30.52,WSW,250,0.0,0.0,72,0.00,,---,0.00,VWS V14.01,2013-11-29 11:00:00,
2013-11-29 06:05:00,23.5,16.1,30.52,WSW,250,0.0,0.0,73,0.00,,---,0.00,VWS V14.01,2013-11-29 11:05:00,
2013-11-29 06:10:00,23.3,16.2,30.52,WSW,250,0.0,0.0,74,0.00,,---,0.00,VWS V14.01,2013-11-29 11:10:00,
2013-11-29 06:15:00,22.9,15.9,30.52,WSW,250,0.0,0.0,74,0.00,,---,0.00,VWS V14.01,2013-11-29 11:15:00,
2013-11-29 06:20:00,22.6,15.9,30.53,WSW,250,0.0,0.0,75,0.00,,---,0.00,VWS V14.01,2013-11-29 11:20:00,
2013-11-29 06:25:00,22.2,15.5,30.53,WSW,250,0.0,0.0,75,0.00,,---,0.00,VWS V14.01,2013-11-29 11:25:00,
2013-11-29 06:30:00,22.0,15.6,30.53,WSW,250,0.0,0.0,76,0.00,,---,0.00,VWS V14.01,2013-11-29 11:30:00,
2013-11-29 06:35:00,21.7,15.3,30.53,WSW,250,0.0,0.0,76,0.00,,---,0.00,VWS V14.01,2013-11-29 11:35:00,
2013-11-29 06:40:00,21.4,15.3,30.53,WSW,250,0.0,0.0,77,0.00,,---,0.00,VWS V14.01,2013-11-29 11:40:00,
2013-11-29 06:45:00,21.1,15.3,30.53,WSW,250,0.0,0.0,78,0.00,,---,0.00,VWS V14.01,2013-11-29 11:45:00,
2013-11-29 06:50:00,20.9,15.1,30.53,WSW,250,0.0,0.0,78,0.00,,---,0.00,VWS V14.01,2013-11-29 11:50:00,
2013-11-29 06:55:00,20.7,15.2,30.53,WSW,250,0.0,0.0,79,0.00,,---,0.00,VWS V14.01,2013-11-29 11:55:00,
2013-11-29 07:00:00,20.6,15.4,30.54,WSW,250,0.0,0.0,80,0.00,,---,0.00,VWS V14.01,2013-11-29 12:00:00,
2013-11-29 07:05:00,20.4,15.2,30.54,WSW,250,0.0,0.0,80,0.00,,---,0.00,VWS V14.01,2013-11-29 12:05:00,
2013-11-29 07:10:00,20.3,15.4,30.54,WSW,250,0.0,0.0,81,0.00,,---,0.00,VWS V14.01,2013-11-29 12:10:00,
2013-11-29 07:15:00,20.3,15.4,30.54,WSW,250,0.0,0.0,81,0.00,,---,0.00,VWS V14.01,2013-11-29 12:15:00,
2013-11-29 07:20:00,20.2,15.3,30.54,WSW,250,0.0,0.0,81,0.00,,---,0.00,VWS V14.01,2013-11-29 12:20:00,
2013-11-29 07:25:00,20.1,15.2,30.55,WSW,250,0.0,0.0,81,0.00,,---,0.00,VWS V14.01,2013-11-29 12:25:00,
2013-11-29 07:35:00,20.3,15.7,30.55,WSW,250,0.0,0.0,82,0.00,,---,0.00,VWS V14.01,2013-11-29 12:35:00,
2013-11-29 07:40:00,20.8,16.2,30.55,WSW,250,0.0,0.0,82,0.00,,---,0.00,VWS V14.01,2013-11-29 12:40:00,
2013-11-29 07:45:00,21.3,16.4,30.55,WSW,250,0.0,0.0,81,0.00,,---,0.00,VWS V14.01,2013-11-29 12:45:00,
2013-11-29 07:50:00,22.0,16.5,30.56,North,354,0.0,2.0,79,0.00,,---,0.00,VWS V14.01,2013-11-29 12:50:00,
2013-11-29 07:55:00,22.9,16.5,30.56,North,350,0.0,3.0,76,0.00,,---,0.00,VWS V14.01,2013-11-29 12:55:00,
2013-11-29 08:00:00,23.5,16.8,30.56,North,350,1.0,2.0,75,0.00,,---,0.00,VWS V14.01,2013-11-29 13:00:00,
2013-11-29 08:05:00,23.9,16.5,30.56,North,354,0.0,2.0,73,0.00,,---,0.00,VWS V14.01,2013-11-29 13:05:00,
2013-11-29 08:15:00,24.3,16.3,30.57,NNW,329,0.0,3.0,71,0.00,,---,0.00,VWS V14.01,2013-11-29 13:15:00,
2013-11-29 08:20:00,24.3,16.3,30.57,NNE,13,1.0,7.0,71,0.00,,---,0.00,VWS V14.01,2013-11-29 13:20:00,
2013-11-29 08:30:00,24.7,16.3,30.57,NW,321,2.0,5.0,70,0.00,,---,0.00,VWS V14.01,2013-11-29 13:30:00,
2013-11-29 08:35:00,24.9,16.5,30.58,NE,44,2.0,5.0,70,0.00,,---,0.00,VWS V14.01,2013-11-29 13:35:00,
2013-11-29 08:40:00,25.2,16.5,30.58,NE,40,2.0,4.0,69,0.00,,---,0.00,VWS V14.01,2013-11-29 13:40:00,
2013-11-29 08:45:00,25.3,16.6,30.58,NNE,12,4.0,5.0,69,0.00,,---,0.00,VWS V14.01,2013-11-29 13:45:00,
2013-11-29 08:50:00,25.5,16.8,30.58,NNW,335,0.0,4.0,69,0.00,,---,0.00,VWS V14.01,2013-11-29 13:50:00,
2013-11-29 08:55:00,25.6,16.5,30.58,NNW,341,1.0,5.0,68,0.00,,---,0.00,VWS V14.01,2013-11-29 13:55:00,
2013-11-29 09:00:00,25.7,16.6,30.58,North,352,2.0,7.0,68,0.00,,---,0.00,VWS V14.01,2013-11-29 14:00:00,
2013-11-29 09:05:00,25.8,16.0,30.58,North,11,5.0,5.0,66,0.00,,---,0.00,VWS V14.01,2013-11-29 14:05:00,
2013-11-29 09:10:00,25.8,15.7,30.58,NW,316,1.0,5.0,65,0.00,,---,0.00,VWS V14.01,2013-11-29 14:10:00,
2013-11-29 09:15:00,25.8,16.0,30.58,North,9,2.0,4.0,66,0.00,,---,0.00,VWS V14.01,2013-11-29 14:15:00,
2013-11-29 09:20:00,26.0,15.9,30.58,West,266,0.0,6.0,65,0.00,,---,0.00,VWS V14.01,2013-11-29 14:20:00,
2013-11-29 09:25:00,26.1,16.0,30.58,NNW,346,1.0,5.0,65,0.00,,---,0.00,VWS V14.01,2013-11-29 14:25:00,
2013-11-29 09:30:00,26.2,15.7,30.58,NE,40,5.0,6.0,64,0.00,,---,0.00,VWS V14.01,2013-11-29 14:30:00,
2013-11-29 09:35:00,26.2,15.3,30.58,NNW,329,1.0,7.0,63,0.00,,---,0.00,VWS V14.01,2013-11-29 14:35:00,
2013-11-29 09:40:00,26.3,15.8,30.58,North,353,0.0,4.0,64,0.00,,---,0.00,VWS V14.01,2013-11-29 14:40:00,
2013-11-29 09:45:00,26.6,15.4,30.58,NNW,337,0.0,5.0,62,0.00,,---,0.00,VWS V14.01,2013-11-29 14:45:00,
2013-11-29 09:55:00,27.1,15.8,30.59,West,263,2.0,7.0,62,0.00,,---,0.00,VWS V14.01,2013-11-29 14:55:00,
2013-11-29 10:00:00,27.0,15.7,30.58,WNW,302,2.0,6.0,62,0.00,,---,0.00,VWS V14.01,2013-11-29 15:00:00,
2013-11-29 10:05:00,27.4,16.5,30.58,NNE,19,6.0,7.0,63,0.00,,---,0.00,VWS V14.01,2013-11-29 15:05:00,
2013-11-29 10:10:00,27.6,15.6,30.59,NW,306,3.0,6.0,60,0.00,,---,0.00,VWS V14.01,2013-11-29 15:10:00,
2013-11-29 10:15:00,27.6,15.9,30.58,NW,316,2.0,6.0,61,0.00,,---,0.00,VWS V14.01,2013-11-29 15:15:00,
2013-11-29 10:20:00,27.4,15.4,30.58,NNE,15,2.0,5.0,60,0.00,,---,0.00,VWS V14.01,2013-11-29 15:20:00,
2013-11-29 10:25:00,27.5,15.4,30.58,NW,305,2.0,6.0,60,0.00,,---,0.00,VWS V14.01,2013-11-29 15:25:00,
2013-11-29 10:30:00,27.8,15.7,30.58,WNW,288,1.0,3.0,60,0.00,,---,0.00,VWS V14.01,2013-11-29 15:30:00,
2013-11-29 10:35:00,27.9,15.4,30.58,NNW,348,4.0,6.0,59,0.00,,---,0.00,VWS V14.01,2013-11-29 15:35:00,
2013-11-29 10:40:00,28.1,15.6,30.58,North,9,3.0,7.0,59,0.00,,---,0.00,VWS V14.01,2013-11-29 15:40:00,
2013-11-29 10:45:00,28.2,15.7,30.58,NW,317,2.0,5.0,59,0.00,,---,0.00,VWS V14.01,2013-11-29 15:45:00,
2013-11-29 10:50:00,28.5,15.6,30.58,West,281,1.0,4.0,58,0.00,,---,0.00,VWS V14.01,2013-11-29 15:50:00,
2013-11-29 11:00:00,29.2,15.1,30.58,NNW,341,0.0,11.0,55,0.00,,---,0.00,VWS V14.01,2013-11-29 16:00:00,
2013-11-29 11:05:00,29.2,15.5,30.57,WNW,300,0.0,5.0,56,0.00,,---,0.00,VWS V14.01,2013-11-29 16:05:00,
2013-11-29 11:10:00,29.0,15.3,30.57,WSW,246,3.0,5.0,56,0.00,,---,0.00,VWS V14.01,2013-11-29 16:10:00,
2013-11-29 11:20:00,29.0,15.3,30.57,North,8,1.0,5.0,56,0.00,,---,0.00,VWS V14.01,2013-11-29 16:20:00,
2013-11-29 11:25:00,29.2,15.1,30.57,NNW,327,5.0,5.0,55,0.00,,---,0.00,VWS V14.01,2013-11-29 16:25:00,
2013-11-29 11:30:00,29.3,15.6,30.57,NE,40,2.0,6.0,56,0.00,,---,0.00,VWS V14.01,2013-11-29 16:30:00,
2013-11-29 11:35:00,29.8,15.6,30.56,NE,40,0.0,4.0,55,0.00,,---,0.00,VWS V14.01,2013-11-29 16:35:00,
2013-11-29 11:40:00,30.1,15.5,30.56,North,359,1.0,5.0,54,0.00,,---,0.00,VWS V14.01,2013-11-29 16:40:00,
2013-11-29 11:45:00,30.0,14.5,30.56,North,4,0.0,7.0,52,0.00,,---,0.00,VWS V14.01,2013-11-29 16:45:00,
2013-11-29 11:50:00,29.7,14.7,30.56,NNE,17,2.0,7.0,53,0.00,,---,0.00,VWS V14.01,2013-11-29 16:50:00,
2013-11-29 11:55:00,29.8,15.2,30.56,NE,40,5.0,6.0,54,0.00,,---,0.00,VWS V14.01,2013-11-29 16:55:00,
2013-11-29 12:00:00,30.0,14.5,30.56,NNE,17,1.0,5.0,52,0.00,,---,0.00,VWS V14.01,2013-11-29 17:00:00,
2013-11-29 12:05:00,30.2,14.7,30.56,North,357,0.0,5.0,52,0.00,,---,0.00,VWS V14.01,2013-11-29 17:05:00,
2013-11-29 12:10:00,30.5,15.0,30.56,NNE,22,0.0,7.0,52,0.00,,---,0.00,VWS V14.01,2013-11-29 17:10:00,
2013-11-29 12:15:00,30.6,14.6,30.56,NNE,30,2.0,9.0,51,0.00,,---,0.00,VWS V14.01,2013-11-29 17:15:00,
2013-11-29 12:20:00,30.8,14.4,30.56,NW,323,1.0,7.0,50,0.00,,---,0.00,VWS V14.01,2013-11-29 17:20:00,
2013-11-29 12:25:00,31.0,13.6,30.56,NE,35,4.0,5.0,48,0.00,,---,0.00,VWS V14.01,2013-11-29 17:25:00,
2013-11-29 12:30:00,31.2,13.8,30.56,WNW,289,1.0,6.0,48,0.00,,---,0.00,VWS V14.01,2013-11-29 17:30:00,
2013-11-29 12:35:00,31.4,14.0,30.56,SSE,154,0.0,10.0,48,0.00,,---,0.00,VWS V14.01,2013-11-29 17:35:00,
2013-11-29 12:40:00,31.7,14.7,30.56,NNW,344,2.0,5.0,49,0.00,,---,0.00,VWS V14.01,2013-11-29 17:40:00,
2013-11-29 12:45:00,31.9,13.5,30.56,North,2,2.0,6.0,46,0.00,,---,0.00,VWS V14.01,2013-11-29 17:45:00,
2013-11-29 12:50:00,32.0,13.6,30.56,WSW,251,3.0,11.0,46,0.00,,---,0.00,VWS V14.01,2013-11-29 17:50:00,
2013-11-29 13:00:00,32.0,13.1,30.57,NW,315,9.0,9.0,45,0.00,,---,0.00,VWS V14.01,2013-11-29 18:00:00,
2013-11-29 13:05:00,31.8,12.9,30.56,West,277,0.0,9.0,45,0.00,,---,0.00,VWS V14.01,2013-11-29 18:05:00,
2013-11-29 13:10:00,31.8,12.4,30.56,NE,49,3.0,7.0,44,0.00,,---,0.00,VWS V14.01,2013-11-29 18:10:00,
2013-11-29 13:15:00,32.0,12.6,30.56,NE,40,4.0,6.0,44,0.00,,---,0.00,VWS V14.01,2013-11-29 18:15:00,
2013-11-29 13:20:00,32.3,11.8,30.56,West,281,0.0,6.0,42,0.00,,---,0.00,VWS V14.01,2013-11-29 18:20:00,
2013-11-29 13:25:00,32.7,12.2,30.56,WSW,254,0.0,6.0,42,0.00,,---,0.00,VWS V14.01,2013-11-29 18:25:00,
2013-11-29 13:30:00,32.9,12.3,30.56,NNW,333,3.0,5.0,42,0.00,,---,0.00,VWS V14.01,2013-11-29 18:30:00,
2013-11-29 13:35:00,32.8,11.1,30.56,NNW,335,2.0,7.0,40,0.00,,---,0.00,VWS V14.01,2013-11-29 18:35:00,
2013-11-29 13:40:00,32.8,10.6,30.56,West,270,7.0,7.0,39,0.00,,---,0.00,VWS V14.01,2013-11-29 18:40:00,
2013-11-29 13:45:00,32.6,9.8,30.56,NNW,339,1.0,10.0,38,0.00,,---,0.00,VWS V14.01,2013-11-29 18:45:00,
2013-11-29 13:50:00,32.6,10.4,30.56,NE,55,1.0,6.0,39,0.00,,---,0.00,VWS V14.01,2013-11-29 18:50:00,
2013-11-29 13:55:00,32.6,9.8,30.56,NW,306,4.0,10.0,38,0.00,,---,0.00,VWS V14.01,2013-11-29 18:55:00,
2013-11-29 14:00:00,32.6,10.4,30.56,North,349,3.0,9.0,39,0.00,,---,0.00,VWS V14.01,2013-11-29 19:00:00,
2013-11-29 14:05:00,32.4,9.1,30.56,NNE,24,6.0,7.0,37,0.00,,---,0.00,VWS V14.01,2013-11-29 19:05:00,
2013-11-29 14:10:00,32.2,10.0,30.57,North,355,3.0,9.0,39,0.00,,---,0.00,VWS V14.01,2013-11-29 19:10:00,
2013-11-29 14:20:00,32.0,9.9,30.57,NE,46,1.0,5.0,39,0.00,,---,0.00,VWS V14.01,2013-11-29 19:20:00,
2013-11-29 14:25:00,31.9,9.8,30.57,NNW,331,1.0,4.0,39,0.00,,---,0.00,VWS V14.01,2013-11-29 19:25:00,
2013-11-29 14:30:00,31.7,9.6,30.57,NW,322,3.0,4.0,39,0.00,,---,0.00,VWS V14.01,2013-11-29 19:30:00,
2013-11-29 14:35:00,31.4,9.3,30.58,North,351,4.0,7.0,39,0.00,,---,0.00,VWS V14.01,2013-11-29 19:35:00,
2013-11-29 14:40:00,31.2,9.1,30.57,NNE,30,4.0,6.0,39,0.00,,---,0.00,VWS V14.01,2013-11-29 19:40:00,
2013-11-29 14:45:00,31.2,9.1,30.58,NNW,344,0.0,6.0,39,0.00,,---,0.00,VWS V14.01,2013-11-29 19:45:00,
2013-11-29 14:50:00,31.1,9.6,30.58,North,352,1.0,4.0,40,0.00,,---,0.00,VWS V14.01,2013-11-29 19:50:00,
2013-11-29 14:55:00,31.0,9.0,30.58,NE,44,5.0,5.0,39,0.00,,---,0.00,VWS V14.01,2013-11-29 19:55:00,
2013-11-29 15:00:00,31.0,9.5,30.58,North,9,5.0,7.0,40,0.00,,---,0.00,VWS V14.01,2013-11-29 20:00:00,
2013-11-29 15:05:00,30.9,8.9,30.58,WNW,302,2.0,6.0,39,0.00,,---,0.00,VWS V14.01,2013-11-29 20:05:00,
2013-11-29 15:10:00,30.8,9.3,30.58,North,8,1.0,5.0,40,0.00,,---,0.00,VWS V14.01,2013-11-29 20:10:00,
2013-11-29 15:15:00,30.7,8.7,30.58,NW,323,0.0,7.0,39,0.00,,---,0.00,VWS V14.01,2013-11-29 20:15:00,
2013-11-29 15:20:00,30.6,9.7,30.59,NNW,328,0.0,7.0,41,0.00,,---,0.00,VWS V14.01,2013-11-29 20:20:00,
2013-11-29 15:25:00,30.5,9.1,30.59,NW,313,1.0,6.0,40,0.00,,---,0.00,VWS V14.01,2013-11-29 20:25:00,
2013-11-29 15:30:00,30.4,9.5,30.59,NNW,332,0.0,3.0,41,0.00,,---,0.00,VWS V14.01,2013-11-29 20:30:00,
2013-11-29 15:35:00,30.2,8.8,30.59,WNW,298,3.0,5.0,40,0.00,,---,0.00,VWS V14.01,2013-11-29 20:35:00,
2013-11-29 15:40:00,30.1,9.3,30.59,NNE,16,4.0,10.0,41,0.00,,---,0.00,VWS V14.01,2013-11-29 20:40:00,
2013-11-29 15:45:00,30.1,9.3,30.59,NNE,20,3.0,4.0,41,0.00,,---,0.00,VWS V14.01,2013-11-29 20:45:00,
2013-11-29 15:50:00,29.9,9.1,30.59,NW,314,4.0,6.0,41,0.00,,---,0.00,VWS V14.01,2013-11-29 20:50:00,
2013-11-29 16:00:00,29.8,9.5,30.60,North,3,0.0,1.0,42,0.00,,---,0.00,VWS V14.01,2013-11-29 21:00:00,
2013-11-29 16:05:00,29.6,9.9,30.61,North,355,0.0,4.0,43,0.00,,---,0.00,VWS V14.01,2013-11-29 21:05:00,
2013-11-29 16:10:00,29.4,8.6,30.61,NNW,342,1.0,5.0,41,0.00,,---,0.00,VWS V14.01,2013-11-29 21:10:00,
2013-11-29 16:15:00,29.3,8.5,30.61,NNE,22,0.0,3.0,41,0.00,,---,0.00,VWS V14.01,2013-11-29 21:15:00,
2013-11-29 16:20:00,29.0,8.8,30.61,NNE,22,0.0,1.0,42,0.00,,---,0.00,VWS V14.01,2013-11-29 21:20:00,
2013-11-29 16:25:00,28.7,8.5,30.61,NNE,23,0.0,3.0,42,0.00,,---,0.00,VWS V14.01,2013-11-29 21:25:00,
2013-11-29 16:30:00,28.5,7.8,30.61,NNE,24,3.0,4.0,41,0.00,,---,0.00,VWS V14.01,2013-11-29 21:30:00,
2013-11-29 16:35:00,28.5,8.3,30.62,NNW,327,0.0,5.0,42,0.00,,---,0.00,VWS V14.01,2013-11-29 21:35:00,
2013-11-29 16:40:00,28.3,8.7,30.62,NNW,328,0.0,2.0,43,0.00,,---,0.00,VWS V14.01,2013-11-29 21:40:00,
2013-11-29 16:45:00,28.2,7.5,30.62,North,357,0.0,4.0,41,0.00,,---,0.00,VWS V14.01,2013-11-29 21:45:00,
2013-11-29 16:50:00,28.1,7.4,30.63,NNE,25,1.0,3.0,41,0.00,,---,0.00,VWS V14.01,2013-11-29 21:50:00,
2013-11-29 16:55:00,27.9,7.3,30.63,NNW,341,0.0,3.0,41,0.00,,---,0.00,VWS V14.01,2013-11-29 21:55:00,
2013-11-29 17:00:00,27.8,6.1,30.63,NNE,14,0.0,3.0,39,0.00,,---,0.00,VWS V14.01,2013-11-29 22:00:00,
2013-11-29 17:05:00,27.7,6.5,30.63,NNW,329,2.0,6.0,40,0.00,,---,0.00,VWS V14.01,2013-11-29 22:05:00,
2013-11-29 17:10:00,27.5,6.9,30.64,NNW,338,1.0,2.0,41,0.00,,---,0.00,VWS V14.01,2013-11-29 22:10:00,
2013-11-29 17:15:00,27.4,5.7,30.64,NNW,335,1.0,3.0,39,0.00,,---,0.00,VWS V14.01,2013-11-29 22:15:00,
2013-11-29 17:20:00,27.3,5.6,30.64,NNW,338,1.0,2.0,39,0.00,,---,0.00,VWS V14.01,2013-11-29 22:20:00,
2013-11-29 17:25:00,27.3,5.1,30.65,NW,310,1.0,2.0,38,0.00,,---,0.00,VWS V14.01,2013-11-29 22:25:00,
2013-11-29 17:30:00,27.2,5.0,30.65,NW,312,0.0,3.0,38,0.00,,---,0.00,VWS V14.01,2013-11-29 22:30:00,
2013-11-29 17:35:00,27.0,5.9,30.65,NNW,327,0.0,4.0,40,0.00,,---,0.00,VWS V14.01,2013-11-29 22:35:00,
2013-11-29 17:40:00,26.9,5.8,30.65,North,11,0.0,3.0,40,0.00,,---,0.00,VWS V14.01,2013-11-29 22:40:00,
2013-11-29 17:45:00,26.7,6.2,30.66,North,11,0.0,0.0,41,0.00,,---,0.00,VWS V14.01,2013-11-29 22:45:00,
2013-11-29 17:50:00,26.5,5.5,30.66,North,8,0.0,2.0,40,0.00,,---,0.00,VWS V14.01,2013-11-29 22:50:00,
2013-11-29 17:55:00,26.3,6.3,30.66,North,8,0.0,2.0,42,0.00,,---,0.00,VWS V14.01,2013-11-29 22:55:00,
2013-11-29 18:00:00,26.1,6.2,30.67,North,8,0.0,1.0,42,0.00,,---,0.00,VWS V14.01,2013-11-29 23:00:00,
2013-11-29 18:05:00,26.0,6.1,30.67,NW,312,0.0,1.0,42,0.00,,---,0.00,VWS V14.01,2013-11-29 23:05:00,
2013-11-29 18:10:00,25.9,6.5,30.67,North,9,1.0,3.0,43,0.00,,---,0.00,VWS V14.01,2013-11-29 23:10:00,
2013-11-29 18:20:00,25.6,6.7,30.68,North,2,0.0,1.0,44,0.00,,---,0.00,VWS V14.01,2013-11-29 23:20:00,
2013-11-29 18:25:00,25.5,6.1,30.68,NNE,25,0.0,2.0,43,0.00,,---,0.00,VWS V14.01,2013-11-29 23:25:00,
2013-11-29 18:30:00,25.5,6.1,30.69,North,2,1.0,5.0,43,0.00,,---,0.00,VWS V14.01,2013-11-29 23:30:00,
2013-11-29 18:35:00,25.4,6.0,30.69,NNE,30,0.0,4.0,43,0.00,,---,0.00,VWS V14.01,2013-11-29 23:35:00,
2013-11-29 18:40:00,25.3,6.4,30.69,NNE,30,0.0,1.0,44,0.00,,---,0.00,VWS V14.01,2013-11-29 23:40:00,
2013-11-29 18:45:00,25.1,5.8,30.69,NNW,338,0.0,2.0,43,0.00,,---,0.00,VWS V14.01,2013-11-29 23:45:00,
2013-11-29 18:50:00,25.0,6.2,30.69,North,353,1.0,2.0,44,0.00,,---,0.00,VWS V14.01,2013-11-29 23:50:00,
2013-11-29 18:55:00,24.8,6.5,30.69,North,353,0.0,1.0,45,0.00,,---,0.00,VWS V14.01,2013-11-29 23:55:00,
2013-11-29 19:00:00,24.5,6.2,30.70,North,353,0.0,2.0,45,0.00,,---,0.00,VWS V14.01,2013-11-30 00:00:00,
2013-11-29 19:05:00,24.3,7.0,30.70,North,353,2.0,2.0,47,0.00,,---,0.00,VWS V14.01,2013-11-30 00:05:00,
2013-11-29 19:10:00,24.2,7.3,30.70,NNE,12,0.0,3.0,48,0.00,,---,0.00,VWS V14.01,2013-11-30 00:10:00,
2013-11-29 19:15:00,24.2,6.4,30.70,NNW,347,0.0,2.0,46,0.00,,---,0.00,VWS V14.01,2013-11-30 00:15:00,
2013-11-29 19:20:00,24.2,5.9,30.70,NNE,26,0.0,2.0,45,0.00,,---,0.00,VWS V14.01,2013-11-30 00:20:00,
2013-11-29 19:25:00,24.3,6.5,30.70,NNE,26,0.0,1.0,46,0.00,,---,0.00,VWS V14.01,2013-11-30 00:25:00,
2013-11-29 19:30:00,24.1,6.3,30.70,NNE,26,0.0,1.0,46,0.00,,---,0.00,VWS V14.01,2013-11-30 00:30:00,
2013-11-29 19:35:00,23.9,6.6,30.70,NNE,26,0.0,1.0,47,0.00,,---,0.00,VWS V14.01,2013-11-30 00:35:00,
2013-11-29 19:40:00,23.7,6.4,30.70,NNE,26,0.0,0.0,47,0.00,,---,0.00,VWS V14.01,2013-11-30 00:40:00,
2013-11-29 19:45:00,23.5,6.7,30.70,NNE,26,0.0,1.0,48,0.00,,---,0.00,VWS V14.01,2013-11-30 00:45:00,
2013-11-29 19:50:00,23.3,6.5,30.70,NNE,26,0.0,0.0,48,0.00,,---,0.00,VWS V14.01,2013-11-30 00:50:00,
2013-11-29 19:55:00,23.2,6.4,30.71,NNE,26,0.0,1.0,48,0.00,,---,0.00,VWS V14.01,2013-11-30 00:55:00,
2013-11-29 20:00:00,23.2,6.9,30.71,NNE,26,0.0,0.0,49,0.00,,---,0.00,VWS V14.01,2013-11-30 01:00:00,
2013-11-29 20:05:00,22.9,7.1,30.71,NNE,26,0.0,0.0,50,0.00,,---,0.00,VWS V14.01,2013-11-30 01:05:00,
2013-11-29 20:10:00,22.6,7.2,30.71,NNE,26,0.0,0.0,51,0.00,,---,0.00,VWS V14.01,2013-11-30 01:10:00,
2013-11-29 20:15:00,22.5,7.5,30.71,NNE,26,0.0,1.0,52,0.00,,---,0.00,VWS V14.01,2013-11-30 01:15:00,
2013-11-29 20:20:00,22.4,7.9,30.71,NNE,26,0.0,0.0,53,0.00,,---,0.00,VWS V14.01,2013-11-30 01:20:00,
2013-11-29 20:25:00,22.2,7.7,30.71,NNE,26,0.0,1.0,53,0.00,,---,0.00,VWS V14.01,2013-11-30 01:25:00,
2013-11-29 20:30:00,22.1,7.6,30.72,NNE,26,1.0,1.0,53,0.00,,---,0.00,VWS V14.01,2013-11-30 01:30:00,
2013-11-29 20:35:00,22.2,7.7,30.72,NNE,26,0.0,1.0,53,0.00,,---,0.00,VWS V14.01,2013-11-30 01:35:00,
2013-11-29 20:40:00,22.3,7.4,30.72,NNE,26,0.0,2.0,52,0.00,,---,0.00,VWS V14.01,2013-11-30 01:40:00,
2013-11-29 20:45:00,22.2,7.3,30.72,NNE,26,0.0,0.0,52,0.00,,---,0.00,VWS V14.01,2013-11-30 01:45:00,
2013-11-29 20:50:00,22.1,7.2,30.72,NNE,26,0.0,0.0,52,0.00,,---,0.00,VWS V14.01,2013-11-30 01:50:00,
2013-11-29 20:55:00,22.0,7.5,30.72,NNE,26,0.0,0.0,53,0.00,,---,0.00,VWS V14.01,2013-11-30 01:55:00,
2013-11-29 21:00:00,21.7,7.6,30.72,NNE,26,0.0,1.0,54,0.00,,---,0.00,VWS V14.01,2013-11-30 02:00:00,
2013-11-29 21:05:00,21.6,7.5,30.73,NNE,26,1.0,2.0,54,0.00,,---,0.00,VWS V14.01,2013-11-30 02:05:00,
2013-11-29 21:10:00,21.6,7.5,30.73,NNE,26,0.0,1.0,54,0.00,,---,0.00,VWS V14.01,2013-11-30 02:10:00,
2013-11-29 21:15:00,21.6,7.9,30.73,NNE,26,0.0,2.0,55,0.00,,---,0.00,VWS V14.01,2013-11-30 02:15:00,
2013-11-29 21:20:00,21.6,7.9,30.73,NNE,26,0.0,2.0,55,0.00,,---,0.00,VWS V14.01,2013-11-30 02:20:00,
2013-11-29 21:25:00,21.6,7.9,30.74,NNE,26,0.0,1.0,55,0.00,,---,0.00,VWS V14.01,2013-11-30 02:25:00,
2013-11-29 21:30:00,21.6,7.5,30.74,NNE,26,0.0,1.0,54,0.00,,---,0.00,VWS V14.01,2013-11-30 02:30:00,
2013-11-29 21:35:00,21.6,7.5,30.74,NNE,26,0.0,1.0,54,0.00,,---,0.00,VWS V14.01,2013-11-30 02:35:00,
2013-11-29 21:40:00,21.6,7.9,30.74,NNE,26,0.0,0.0,55,0.00,,---,0.00,VWS V14.01,2013-11-30 02:40:00,
2013-11-29 21:45:00,21.4,7.8,30.74,NNE,26,0.0,1.0,55,0.00,,---,0.00,VWS V14.01,2013-11-30 02:45:00,
2013-11-29 21:50:00,21.4,7.8,30.74,NNE,26,0.0,2.0,55,0.00,,---,0.00,VWS V14.01,2013-11-30 02:50:00,
2013-11-29 21:55:00,21.2,8.4,30.74,NNE,26,0.0,1.0,57,0.00,,---,0.00,VWS V14.01,2013-11-30 02:55:00,
2013-11-29 22:00:00,21.1,7.9,30.74,NNE,26,0.0,2.0,56,0.00,,---,0.00,VWS V14.01,2013-11-30 03:00:00,
2013-11-29 22:05:00,21.1,7.9,30.73,NNE,26,0.0,1.0,56,0.00,,---,0.00,VWS V14.01,2013-11-30 03:05:00,
2013-11-29 22:10:00,21.0,8.2,30.74,NNE,26,0.0,1.0,57,0.00,,---,0.00,VWS V14.01,2013-11-30 03:10:00,
2013-11-29 22:15:00,20.9,8.1,30.74,NNE,12,0.0,3.0,57,0.00,,---,0.00,VWS V14.01,2013-11-30 03:15:00,
2013-11-29 22:20:00,20.8,8.0,30.74,NNE,12,0.0,1.0,57,0.00,,---,0.00,VWS V14.01,2013-11-30 03:20:00,
2013-11-29 22:25:00,20.7,7.9,30.74,NNE,19,2.0,3.0,57,0.00,,---,0.00,VWS V14.01,2013-11-30 03:25:00,
2013-11-29 22:30:00,20.8,8.0,30.74,NW,316,0.0,5.0,57,0.00,,---,0.00,VWS V14.01,2013-11-30 03:30:00,
2013-11-29 22:35:00,20.8,8.0,30.73,North,1,1.0,3.0,57,0.00,,---,0.00,VWS V14.01,2013-11-30 03:35:00,
2013-11-29 22:40:00,20.8,8.0,30.74,North,360,0.0,5.0,57,0.00,,---,0.00,VWS V14.01,2013-11-30 03:40:00,
2013-11-29 22:45:00,20.9,8.1,30.74,North,7,0.0,6.0,57,0.00,,---,0.00,VWS V14.01,2013-11-30 03:45:00,
2013-11-29 22:50:00,20.9,8.1,30.74,NNE,25,3.0,7.0,57,0.00,,---,0.00,VWS V14.01,2013-11-30 03:50:00,
2013-11-29 22:55:00,20.9,8.5,30.74,NNE,18,0.0,4.0,58,0.00,,---,0.00,VWS V14.01,2013-11-30 03:55:00,
2013-11-29 23:00:00,20.8,8.0,30.74,NE,54,1.0,4.0,57,0.00,,---,0.00,VWS V14.01,2013-11-30 04:00:00,
2013-11-29 23:05:00,20.8,8.4,30.74,NE,44,0.0,3.0,58,0.00,,---,0.00,VWS V14.01,2013-11-30 04:05:00,
2013-11-29 23:10:00,20.8,8.0,30.75,NNW,339,0.0,2.0,57,0.00,,---,0.00,VWS V14.01,2013-11-30 04:10:00,
2013-11-29 23:15:00,20.7,8.3,30.75,North,2,0.0,3.0,58,0.00,,---,0.00,VWS V14.01,2013-11-30 04:15:00,
2013-11-29 23:20:00,20.6,8.2,30.75,North,2,0.0,0.0,58,0.00,,---,0.00,VWS V14.01,2013-11-30 04:20:00,
2013-11-29 23:25:00,20.4,8.4,30.75,NW,325,0.0,2.0,59,0.00,,---,0.00,VWS V14.01,2013-11-30 04:25:00,
2013-11-29 23:30:00,20.2,8.6,30.76,NNW,343,0.0,2.0,60,0.00,,---,0.00,VWS V14.01,2013-11-30 04:30:00,
2013-11-29 23:40:00,19.9,8.6,30.76,NNW,343,0.0,0.0,61,0.00,,---,0.00,VWS V14.01,2013-11-30 04:40:00,
2013-11-29 23:45:00,19.7,8.4,30.76,NNW,343,0.0,0.0,61,0.00,,---,0.00,VWS V14.01,2013-11-30 04:45:00,
2013-11-29 23:50:00,19.4,8.5,30.76,NNW,343,0.0,0.0,62,0.00,,---,0.00,VWS V14.01,2013-11-30 04:50:00,